CZ-2C R/B

Satellite information

Favourite Embed

Satellite Type and Status

ROCKET BODYIN ORBIT

Key statistics

Satellite CZ-2C R/B at a glance.

Uptime

3997

Days in orbit

Revolutions

≈ 14.8

Per day

Orbit

SSO

Sun Synchronous Orbit

Inclination

98.4

Latest

Satellite identification and parameters

Extended collection of information and parameters for CZ-2C R/B.

Object identification

Identified? True

Debris? False

Object name: CZ-2C R/B

International designator: 2014-059B

Object number (NORAD): 40262

Object ID (CCSDS): 40262

Country: PEOPLES REPUBLIC OF CHINA (PRC)

Current information (Y/N): Y

RCS size: LARGE

Orbital parameters

Period: 97.574 minutes

Inclination: 98.3927 deg

SMA: 7020.758 km

Apoapsis: 672.314 km

Periapsis: 612.932 km

RAAN: 94.7428 deg

Eccentricy: 0.00422904

Argument of periapsis: 12.8295 deg

Mean anomaly: 347.3979 deg

Mean motion: 14.75797312 rev/day

Mean motion (dot): 0.00001423 rev/day2

B* drag term: 0.00021293076 1/REarth

Two-line elements (TLE)

Creation date: Sept. 6, 2025, 2:09 a.m.

Reference frame: TEME

Reference center: EARTH

Epoch: Sept. 5, 2025, 2:23 p.m. UTC

TLE line 0: 0 CZ-2C R/B

TLE line 1: 1 40262U 14059B 25248.59965921 .00001423 00000-0 21293-3 0 9990

TLE line 2: 2 40262 98.3927 94.7428 0042290 12.8295 347.3979 14.75797312587639

Live tracking on map

Real-time ground track for satellite CZ-2C R/B.

In-orbit conjunctions

A list of the most updated potential collisions computed for object CZ-2C R/B.

Target Orbit TCA Probability of collision Miss distance Type
CZ-6A DEB SSO 2025-02-07 11:23:07 0.0001078337 253.0 (m) DEBRIS
CZ-6A DEB LEO 2024-11-26 10:14:49 0.0001567108 479.0 (m) DEBRIS
FENGYUN 1C DEB SSO 2024-09-26 08:43:54 0.001096585 146.0 (m) DEBRIS
CZ-4C DEB SSO 2024-09-18 12:26:08 0.0002027045 585.0 (m) DEBRIS

Associated space launch

CZ-2C R/B was lifted into orbit during the mission ‘Long March 2C | Shijian 11-07’, on board a Long March 2 space rocket.

The launch took place on Sept. 28, 2014, 5:13 a.m. from Launch Area 4 (SLS-2 / 603).

For more information about the launch, click the button.

Launch to space Long March 2C | Shijian 11-07
Long March 2C | Shijian 11-07

Agency: N/A

Status: Launch Successful

Launch date: Sept. 28, 2014, 5:13 a.m. UTC

Rocket: Long March 2

Launch pad: Launch Area 4 (SLS-2 / 603)

Location: Jiuquan Satellite Launch Center, People's Republic of China

...

Latest news about this satellite

There are no fresh news available about this satellite. Check back as we update our databases every day.


Newsletter sign-up

Weekly statistics, charts and insights to help you stay on top of the space industry.